CW5139 Weather Reports


time (UTC)temp
F
wind
direction
speed
knots
gust
knots
rain 1hr
in
rain 24hr
in
rain mn
in
humidity
%
barometer
mb
20200407042823 57 297 0.0 0.0 0.00 0.00 0.00 78 1015.0
20200407042332 57 297 0.0 0.0 0.00 0.00 0.00 77 1015.0
20200407041819 57 297 0.0 0.0 0.00 0.00 0.00 77 1015.0
20200407041332 57 297 0.0 0.0 0.00 0.00 0.00 77 1015.0
20200407040818 57 297 0.0 0.0 0.00 0.00 0.00 77 1014.9
20200407040323 57 297 0.0 0.0 0.00 0.00 0.00 78 1014.9
20200407035833 57 297 0.0 0.0 0.00 0.00 0.00 78 1014.9
20200407035324 57 297 0.0 0.0 0.00 0.00 0.00 78 1014.9
20200407034831 58 297 0.0 0.0 0.00 0.00 0.00 78 1015.0
20200407034320 58 297 0.0 0.0 0.00 0.00 0.00 78 1015.0
20200407033826 58 297 0.0 0.0 0.00 0.00 0.00 77 1015.1
20200407033337 58 297 0.0 0.0 0.00 0.00 0.00 76 1015.2
20200407032828 59 297 0.0 0.0 0.00 0.00 0.00 76 1015.2
20200407032337 59 297 0.0 0.0 0.00 0.00 0.00 76 1015.1
20200407031823 59 297 0.0 0.0 0.00 0.00 0.00 76 1015.1
20200407031332 59 297 0.0 0.0 0.00 0.00 0.00 76 1015.1
20200407030819 59 297 0.0 0.0 0.00 0.00 0.00 75 1015.0
20200407030328 59 297 0.0 0.0 0.00 0.00 0.00 75 1015.0
20200407025836 60 297 0.0 0.0 0.00 0.00 0.00 74 1015.0
20200407025325 60 297 0.0 0.0 0.00 0.00 0.00 73 1015.0
20200407024834 60 297 0.0 0.0 0.00 0.00 0.00 72 1015.1
20200407024327 60 297 0.0 0.0 0.00 0.00 0.00 72 1015.2
20200407023833 61 297 0.0 0.9 0.00 0.00 0.00 71 1015.2
20200407023322 61 297 0.0 3.5 0.00 0.00 0.00 69 1015.3
20200407022829 61 297 0.0 3.5 0.00 0.00 0.00 68 1015.4
20200407022337 61 297 0.0 0.0 0.00 0.00 0.00 68 1015.4
20200407021823 61 297 0.0 0.0 0.00 0.00 0.00 68 1015.5
20200407021333 61 298 0.0 0.0 0.00 0.00 0.00 68 1015.4
20200407020818 61 298 0.0 0.0 0.00 0.00 0.00 68 1015.4
20200407020327 61 298 0.0 0.0 0.00 0.00 0.00 68 1015.4
20200407015820 61 298 0.0 0.9 0.00 0.00 0.00 67 1015.3
20200407015327 61 298 0.0 0.9 0.00 0.00 0.00 67 1015.4
20200407014818 61 298 0.0 0.0 0.00 0.00 0.00 66 1015.4
20200407014326 61 298 0.0 0.0 0.00 0.00 0.00 66 1015.4
20200407013835 61 298 0.0 0.0 0.00 0.00 0.00 66 1015.3
20200407013325 61 298 0.0 0.0 0.00 0.00 0.00 65 1015.3
20200407012831 61 298 0.0 0.0 0.00 0.00 0.00 65 1015.1
20200407012321 61 298 0.0 0.0 0.00 0.00 0.00 64 1015.3
20200407011826 61 299 0.0 0.0 0.00 0.00 0.00 64 1015.3
20200407011321 61 298 0.0 0.0 0.00 0.00 0.00 63 1015.3
20200407010828 61 299 0.0 0.0 0.00 0.00 0.00 63 1015.2
20200407010316 61 299 0.0 0.0 0.00 0.00 0.00 62 1015.2
20200407005826 62 299 0.0 0.0 0.00 0.00 0.00 61 1015.2
20200407005315 62 299 0.0 0.0 0.00 0.00 0.00 61 1015.2
20200407004824 62 299 0.0 0.0 0.00 0.00 0.00 60 1015.2
20200407004332 62 299 0.0 0.0 0.00 0.00 0.00 59 1015.3
20200407003821 63 299 0.0 0.0 0.00 0.00 0.00 59 1015.2
20200407003330 63 299 0.0 0.0 0.00 0.00 0.00 58 1015.2
20200407002820 63 299 0.0 0.0 0.00 0.00 0.00 57 1015.2
20200407002332 63 299 0.0 0.0 0.00 0.00 0.00 56 1015.2
20200407001819 64 299 0.0 0.0 0.00 0.00 0.00 56 1015.2
20200407001328 64 299 0.0 0.0 0.00 0.00 0.00 55 1015.2
20200407000834 64 299 0.0 0.0 0.00 0.00 0.00 55 1015.2
20200407000325 64 299 0.0 0.0 0.00 0.00 0.00 55 1015.1
20200406235835 64 299 0.0 2.6 0.00 0.00 0.00 54 1015.1
20200406235324 64 299 0.9 3.5 0.00 0.00 0.00 54 1015.1
20200406234833 64 299 1.7 3.5 0.00 0.00 0.00 53 1015.1
20200406234327 65 299 2.6 3.5 0.00 0.00 0.00 53 1015.0
20200406233837 65 301 0.0 4.3 0.00 0.00 0.00 53 1015.0
20200406233324 65 301 0.9 6.1 0.00 0.00 0.00 53 1015.1
20200406232832 65 298 3.5 6.1 0.00 0.00 0.00 52 1015.1
20200406232325 65 285 0.9 6.1 0.00 0.00 0.00 52 1015.1
20200406231833 66 293 2.6 6.1 0.00 0.00 0.00 52 1015.0
20200406231323 66 282 1.7 4.3 0.00 0.00 0.00 51 1014.9
20200406230830 66 279 3.5 4.3 0.00 0.00 0.00 51 1014.9
20200406230318 66 270 1.7 3.5 0.00 0.00 0.00 50 1014.9
20200406225829 66 208 0.0 5.2 0.00 0.00 0.00 50 1014.9
20200406225320 66 208 1.7 5.2 0.00 0.00 0.00 50 1014.9
20200406224826 66 303 2.6 5.2 0.00 0.00 0.00 49 1014.9
20200406224318 66 310 0.9 4.3 0.00 0.00 0.00 49 1014.8
20200406223824 66 310 2.6 5.2 0.00 0.00 0.00 49 1014.9
20200406223332 66 313 3.5 6.1 0.00 0.00 0.00 50 1014.9
20200406222822 66 189 3.5 6.1 0.00 0.00 0.00 50 1015.0
20200406222330 66 179 3.5 6.1 0.00 0.00 0.00 49 1015.0
20200406221818 66 202 2.6 7.0 0.00 0.00 0.00 49 1015.0
20200406221331 66 213 1.7 5.2 0.00 0.00 0.00 49 1015.1
20200406220821 66 260 2.6 7.0 0.00 0.00 0.00 49 1015.1
20200406220331 66 303 3.5 7.0 0.00 0.00 0.00 49 1015.2
20200406215837 65 185 2.6 7.0 0.00 0.00 0.00 49 1015.2
20200406215326 66 244 3.5 7.0 0.00 0.00 0.00 48 1015.3
20200406214836 66 206 1.7 6.1 0.00 0.00 0.00 48 1015.4
20200406214325 66 217 3.5 7.8 0.00 0.00 0.00 49 1015.4
20200406213832 67 244 2.6 7.8 0.00 0.00 0.00 48 1015.4
20200406213322 67 235 2.6 9.6 0.00 0.00 0.00 47 1015.5
20200406212834 67 193 5.2 9.6 0.00 0.00 0.00 46 1015.5
20200406212322 67 233 3.5 7.8 0.00 0.00 0.00 48 1015.5
20200406211832 67 201 2.6 9.6 0.00 0.00 0.00 48 1015.4
20200406211320 67 180 3.5 11.3 0.00 0.00 0.00 47 1015.6
20200406210827 67 268 6.1 11.3 0.00 0.00 0.00 46 1015.6
20200406210315 67 247 5.2 8.7 0.00 0.00 0.00 46 1015.7
20200406205825 67 252 3.5 8.7 0.00 0.00 0.00 48 1015.7
20200406205333 67 197 2.6 7.8 0.00 0.00 0.00 49 1015.8
20200406204823 67 206 4.3 9.6 0.00 0.00 0.00 48 1015.8
20200406204319 67 199 4.3 9.6 0.00 0.00 0.00 45 1015.8
20200406203827 68 252 3.5 8.7 0.00 0.00 0.00 46 1015.8
20200406203316 68 199 3.5 6.1 0.00 0.00 0.00 45 1015.9
20200406202826 68 259 2.6 7.0 0.00 0.00 0.00 43 1015.9
20200406202336 68 248 4.3 7.0 0.00 0.00 0.00 43 1015.9
20200406201824 69 223 2.6 7.0 0.00 0.00 0.00 42 1016.0
20200406201334 69 6 0.0 2.6 0.00 0.00 0.00 37 1016.0
20200406200820 68 13 0.9 4.3 0.00 0.00 0.00 34 1016.0
20200406200327 68 356 1.7 4.3 0.00 0.00 0.00 34 1016.1
20200406195821 68 62 0.9 3.5 0.00 0.00 0.00 36 1016.2
20200406195330 68 126 0.9 5.2 0.00 0.00 0.00 37 1016.3
20200406194817 68 102 1.7 5.2 0.00 0.00 0.00 35 1016.3
20200406194326 67 87 0.9 4.3 0.00 0.00 0.00 36 1016.3
20200406193833 67 77 2.6 5.2 0.00 0.00 0.00 35 1016.3
20200406193322 67 169 0.0 5.2 0.00 0.00 0.00 35 1016.4
20200406192828 67 202 1.7 5.2 0.00 0.00 0.00 34 1016.5
20200406192337 67 75 0.0 3.5 0.00 0.00 0.00 34 1016.6
20200406191825 67 57 0.9 3.5 0.00 0.00 0.00 32 1016.7
20200406191337 67 104 0.0 2.6 0.00 0.00 0.00 33 1016.8
20200406190824 66 104 0.9 5.2 0.00 0.00 0.00 32 1017.1
20200406190332 66 122 0.9 6.1 0.00 0.00 0.00 31 1017.1
20200406185818 66 144 2.6 6.1 0.00 0.00 0.00 31 1017.2
20200406185327 66 18 2.6 3.5 0.00 0.00 0.00 31 1017.2
20200406184833 66 93 0.9 7.0 0.00 0.00 0.00 30 1017.4
20200406184325 66 71 3.5 7.0 0.00 0.00 0.00 31 1017.4
20200406183832 65 132 1.7 5.2 0.00 0.00 0.00 31 1017.5
20200406183320 64 53 2.6 5.2 0.00 0.00 0.00 32 1017.6
20200406182828 65 356 1.7 4.3 0.00 0.00 0.00 32 1017.6
20200406182320 64 123 0.0 3.5 0.00 0.00 0.00 30 1017.7
20200406181827 65 62 1.7 3.5 0.00 0.00 0.00 33 1017.7
20200406181337 64 104 0.0 3.5 0.00 0.00 0.00 31 1017.8
20200406180824 64 111 0.9 4.3 0.00 0.00 0.00 30 1017.9
20200406180335 64 85 0.0 6.1 0.00 0.00 0.00 34 1018.0
20200406175823 64 84 2.6 7.0 0.00 0.00 0.00 33 1018.0
20200406175332 64 50 0.0 4.3 0.00 0.00 0.00 33 1018.1
20200406174819 63 104 0.9 3.5 0.00 0.00 0.00 34 1018.1
20200406174332 62 220 0.0 6.1 0.00 0.00 0.00 37 1018.2
20200406173838 61 220 1.7 6.1 0.00 0.00 0.00 37 1018.3
20200406173327 62 176 1.7 6.1 0.00 0.00 0.00 36 1018.4
20200406172833 61 131 0.9 4.3 0.00 0.00 0.00 35 1018.5
20200406172325 62 137 1.7 4.3 0.00 0.00 0.00 34 1018.5
20200406171833 62 102 0.0 4.3 0.00 0.00 0.00 35 1018.6
20200406171320 61 102 1.7 7.0 0.00 0.00 0.00 35 1018.6
20200406170828 61 62 2.6 7.0 0.00 0.00 0.00 33 1018.7
20200406170333 60 69 0.9 7.0 0.00 0.00 0.00 32 1018.8
20200406165827 59 216 2.6 7.0 0.00 0.00 0.00 37 1018.9
20200406165316 59 126 0.9 7.8 0.00 0.00 0.00 36 1018.9
20200406164825 58 98 1.7 7.8 0.00 0.00 0.00 36 1019.1
20200406164336 59 64 3.5 7.0 0.00 0.00 0.00 38 1019.2
20200406163825 59 127 2.6 7.8 0.00 0.00 0.00 36 1019.3
20200406163335 59 136 3.5 6.1 0.00 0.00 0.00 38 1019.4
20200406162825 59 110 0.9 6.1 0.00 0.00 0.00 37 1019.5
20200406162334 58 116 0.0 7.8 0.00 0.00 0.00 40 1019.6
20200406161820 58 139 0.9 7.0 0.00 0.00 0.00 41 1019.7
20200406161332 58 115 3.5 7.0 0.00 0.00 0.00 40 1019.8
20200406160819 58 94 0.0 0.0 0.00 0.00 0.00 49 1019.9
20200406160328 56 91 0.0 4.3 0.00 0.00 0.00 52 1020.0
20200406155838 55 94 0.0 4.3 0.00 0.00 0.00 54 1020.1
20200406155327 55 192 2.6 4.3 0.00 0.00 0.00 53 1020.1
20200406154834 55 127 0.9 3.5 0.00 0.00 0.00 53 1020.1
20200406154324 55 85 0.0 4.3 0.00 0.00 0.00 55 1020.1
20200406153832 54 312 0.9 6.1 0.00 0.00 0.00 56 1020.2
20200406153320 54 66 0.9 6.1 0.00 0.00 0.00 58 1020.2
20200406152834 54 72 0.0 0.0 0.00 0.00 0.00 61 1020.2
20200406152322 53 72 0.0 0.0 0.00 0.00 0.00 63 1020.3
20200406151833 53 50 0.0 0.0 0.00 0.00 0.00 63 1020.3
20200406151321 52 41 0.0 6.1 0.00 0.00 0.00 64 1020.4
20200406150829 52 20 0.0 6.1 0.00 0.00 0.00 64 1020.4
20200406150338 52 346 0.0 2.6 0.00 0.00 0.00 66 1020.5
20200406145825 51 346 0.0 2.6 0.00 0.00 0.00 66 1020.5
20200406145332 51 10 0.0 4.3 0.00 0.00 0.00 66 1020.5
20200406144819 51 10 2.6 4.3 0.00 0.00 0.00 66 1020.5
20200406144331 50 54 0.0 2.6 0.00 0.00 0.00 68 1020.5
20200406143822 50 54 0.0 1.7 0.00 0.00 0.00 69 1020.4
20200406143331 49 72 0.0 1.7 0.00 0.00 0.00 70 1020.5
20200406142837 49 80 0.0 1.7 0.00 0.00 0.00 70 1020.5
20200406142326 48 108 0.0 0.0 0.00 0.00 0.00 71 1020.5
20200406141832 47 108 0.0 0.0 0.00 0.00 0.00 72 1020.5
20200406141319 47 108 0.0 5.2 0.00 0.00 0.00 74 1020.5
20200406140830 46 108 0.0 5.2 0.00 0.00 0.00 74 1020.6
20200406140318 46 128 0.0 6.1 0.00 0.00 0.00 74 1020.5
20200406135830 46 114 1.7 4.3 0.00 0.00 0.00 75 1020.6
20200406135320 45 106 0.9 6.1 0.00 0.00 0.00 76 1020.6
20200406134827 44 63 0.9 6.1 0.00 0.00 0.00 77 1020.6
20200406134336 44 70 0.9 5.2 0.00 0.00 0.00 77 1020.7
20200406133823 44 73 1.7 4.3 0.00 0.00 0.00 78 1020.7
20200406133332 43 61 0.9 6.1 0.00 0.00 0.00 78 1020.7
20200406132822 43 52 3.5 6.1 0.00 0.00 0.00 78 1020.7
20200406132331 43 87 0.0 7.0 0.00 0.00 0.00 79 1020.6
20200406131837 43 84 3.5 7.0 0.00 0.00 0.00 80 1020.8
20200406131330 42 69 0.0 1.7 0.00 0.00 0.00 82 1020.8
20200406130837 42 69 0.0 2.6 0.00 0.00 0.00 83 1021.0
20200406130325 41 58 0.0 2.6 0.00 0.00 0.00 84 1021.0
20200406125835 41 62 0.0 0.0 0.00 0.00 0.00 85 1020.9
20200406125324 40 62 0.0 3.5 0.00 0.00 0.00 91 1021.0
20200406124832 40 62 0.0 3.5 0.00 0.00 0.00 87 1020.9
20200406124324 39 53 0.0 2.6 0.00 0.00 0.00 88 1020.9
20200406123831 39 57 0.0 3.5 0.00 0.00 0.00 89 1020.9
20200406123323 39 57 0.0 3.5 0.00 0.00 0.00 90 1020.8
20200406122833 38 98 0.0 1.7 0.00 0.00 0.00 90 1020.7
20200406122321 38 102 0.0 0.0 0.00 0.00 0.00 91 1020.7
20200406121826 37 102 0.0 0.9 0.00 0.00 0.00 91 1020.7
20200406121316 37 102 0.0 0.9 0.00 0.00 0.00 91 1020.6
20200406120826 37 102 0.0 0.0 0.00 0.00 0.00 91 1020.5
20200406120335 36 102 0.0 0.0 0.00 0.00 0.00 90 1020.5
20200406115822 36 102 0.0 0.0 0.00 0.00 0.00 90 1020.3
20200406115330 36 102 0.0 0.0 0.00 0.00 0.00 90 1020.3
20200406114820 36 102 0.0 0.0 0.00 0.00 0.00 90 1020.2
20200406114333 36 102 0.0 0.0 0.00 0.00 0.00 90 1020.2
20200406113821 36 102 0.0 0.0 0.00 0.00 0.00 90 1020.0
20200406113330 36 102 0.0 0.0 0.00 0.00 0.00 89 1019.8
20200406112837 36 102 0.0 0.0 0.00 0.00 0.00 89 1019.7
20200406112327 36 102 0.0 0.0 0.00 0.00 0.00 89 1019.7
20200406111832 36 102 0.0 0.0 0.00 0.00 0.00 89 1019.7
20200406111322 36 102 0.0 0.0 0.00 0.00 0.00 89 1019.6
20200406110828 36 102 0.0 0.0 0.00 0.00 0.00 89 1019.6
20200406110316 36 102 0.0 0.0 0.00 0.00 0.00 89 1019.6
20200406105831 36 72 0.0 0.0 0.00 0.00 0.00 88 1019.6
20200406105338 37 72 0.0 0.0 0.00 0.00 0.00 88 1019.6
20200406104825 37 72 0.0 0.0 0.00 0.00 0.00 88 1019.7
20200406104333 37 72 0.0 0.0 0.00 0.00 0.00 88 1019.6
20200406103820 37 72 0.0 0.0 0.00 0.00 0.00 88 1019.4
20200406103332 37 72 0.0 0.0 0.00 0.00 0.00 88 1019.3
20200406102838 37 72 0.0 0.0 0.00 0.00 0.00 88 1019.3
20200406102326 37 72 0.0 0.0 0.00 0.00 0.00 88 1019.3
20200406101836 37 72 0.0 0.0 0.00 0.00 0.00 88 1019.3
20200406101328 38 72 0.0 0.0 0.00 0.00 0.00 88 1019.3
20200406100835 38 72 0.0 0.0 0.00 0.00 0.00 88 1019.2
20200406100324 38 72 0.0 0.0 0.00 0.00 0.00 88 1019.3
20200406095833 38 72 0.0 0.0 0.00 0.00 0.00 88 1019.2
20200406095323 38 72 0.0 0.0 0.00 0.00 0.00 88 1019.3
20200406094829 38 72 0.0 0.0 0.00 0.00 0.00 88 1019.3
20200406094322 38 72 0.0 0.0 0.00 0.00 0.00 88 1019.4
20200406093829 38 72 0.0 0.0 0.00 0.00 0.00 88 1019.3
20200406093338 38 72 0.0 0.0 0.00 0.00 0.00 88 1019.4
20200406092830 38 72 0.0 0.0 0.00 0.00 0.00 88 1019.4
20200406091336 38 72 0.0 0.0 0.00 0.00 0.00 88 1019.4
20200406090823 39 72 0.0 0.0 0.00 0.00 0.00 88 1019.3
20200406090331 39 72 0.0 0.0 0.00 0.00 0.00 88 1019.2
20200406085816 39 72 0.0 0.0 0.00 0.00 0.00 88 1019.2
20200406085328 39 72 0.0 0.0 0.00 0.00 0.00 88 1019.1
20200406084835 39 72 0.0 2.6 0.00 0.00 0.00 88 1019.1
20200406084326 39 72 0.0 2.6 0.00 0.00 0.00 88 1019.1
20200406083834 39 72 0.0 0.0 0.00 0.00 0.00 88 1019.1
20200406083323 39 72 0.0 0.0 0.00 0.00 0.00 88 1019.2
20200406082832 39 72 0.0 0.0 0.00 0.00 0.00 88 1019.2
20200406082324 39 72 0.0 0.0 0.00 0.00 0.00 87 1019.3
20200406081830 39 72 0.0 0.0 0.00 0.00 0.00 87 1019.4
20200406081320 39 72 0.0 0.0 0.00 0.00 0.00 87 1019.4
20200406080831 40 72 0.0 0.0 0.00 0.00 0.00 87 1019.4
20200406080319 40 72 0.0 0.0 0.00 0.00 0.00 87 1019.5
20200406075830 40 72 0.0 0.0 0.00 0.00 0.00 87 1019.5
20200406075338 40 72 0.0 0.0 0.00 0.00 0.00 87 1019.6
20200406074825 40 72 0.0 0.0 0.00 0.00 0.00 87 1019.6
20200406074334 40 72 0.0 0.0 0.00 0.00 0.00 92 1019.4
20200406073820 40 72 0.0 0.0 0.00 0.00 0.00 87 1019.4
20200406073328 40 72 0.0 0.0 0.00 0.00 0.00 87 1019.2
20200406072835 40 72 0.0 0.0 0.00 0.00 0.00 87 1019.3
20200406072324 40 72 0.0 0.0 0.00 0.00 0.00 87 1019.3
20200406071831 40 72 0.0 0.0 0.00 0.00 0.00 87 1019.5
20200406071324 41 72 0.0 0.0 0.00 0.00 0.00 87 1019.4
20200406070831 41 72 0.0 0.0 0.00 0.00 0.00 87 1019.4
20200406070320 41 72 0.0 0.0 0.00 0.00 0.00 87 1019.4
20200406065828 41 72 0.0 0.0 0.00 0.00 0.00 86 1019.5
20200406065316 41 72 0.0 0.0 0.00 0.00 0.00 86 1019.5
20200406064826 41 72 0.0 0.0 0.00 0.00 0.00 86 1019.5
20200406064338 41 72 0.0 0.0 0.00 0.00 0.00 86 1019.5
20200406063825 41 72 0.0 0.0 0.00 0.00 0.00 86 1019.6
20200406063333 41 72 0.0 0.0 0.00 0.00 0.00 86 1019.6
20200406062827 41 72 0.0 0.0 0.00 0.00 0.00 86 1019.5
20200406062338 42 72 0.0 0.0 0.00 0.00 0.00 85 1019.4
20200406061823 42 72 0.0 0.0 0.00 0.00 0.00 85 1019.4
20200406061332 42 72 0.0 2.6 0.00 0.00 0.00 85 1019.4
20200406060818 42 72 0.0 3.5 0.00 0.00 0.00 85 1019.4
20200406060426 42 61 0.0 2.6 0.00 0.00 0.00 85 1019.4
20200406055833 42 64 0.0 2.6 0.00 0.00 0.00 85 1019.4
20200406055325 42 33 0.0 4.3 0.00 0.00 0.00 85 1019.5
20200406054832 42 26 0.0 4.3 0.00 0.00 0.00 85 1019.5
20200406054325 42 27 0.0 2.6 0.00 0.00 0.00 85 1019.5
20200406053835 43 34 0.0 2.6 0.00 0.00 0.00 84 1019.5
20200406053323 43 54 0.0 2.6 0.00 0.00 0.00 84 1019.5
20200406052829 43 66 0.0 1.7 0.00 0.00 0.00 84 1019.5
20200406052320 43 66 0.0 1.7 0.00 0.00 0.00 84 1019.4
20200406051828 43 56 0.0 0.0 0.00 0.00 0.00 84 1019.5
20200406051321 43 44 0.0 0.0 0.00 0.00 0.00 84 1019.5
20200406050828 43 47 0.0 4.3 0.00 0.00 0.00 84 1019.5
20200406050337 43 47 0.9 4.3 0.00 0.00 0.00 84 1019.6
20200406045828 43 26 0.9 3.5 0.00 0.00 0.00 83 1019.6
20200406045335 44 27 0.9 3.5 0.00 0.00 0.00 83 1019.7
20200406044823 44 41 0.0 4.3 0.00 0.00 0.00 83 1019.7
20200406044332 44 42 1.7 4.3 0.00 0.00 0.00 83 1019.6
20200406043819 44 25 0.9 5.2 0.00 0.00 0.00 83 1019.7
20200406043327 44 10 1.7 6.1 0.00 0.00 0.00 83 1019.7